Temperature
17 17 17 17 17 17 17 17 17 17 17 17 17 17 17 17 17 17 17 17 17 17 17 17 17 17 17 17 17 17 17 17 17 17 17 17 16 16 16 16 16 16 16
17 17 17 17 17 17 16 16 16 17 17 17 17 17 17 17 17 17 17 17 17 17 17 17 17 17 17 17 17 17 17 17 17 17 17 17 16 16 16 16 16 16 16
17 17 17 16 16 16 16 16 16 16 16 16 16 16 16 16 17 17 17 17 17 17 17 17 17 17 17 17 17 17 17 17 17 17 17 17 17 16 16 16 16 16 16
17 17 16 16 16 16 16 16 16 16 16 16 16 16 16 16 16 16 16 16 16 16 16 16 17 16 16 16 16 16 16 16 17 17 17 17 17 16 16 16 16 16 16
16 16 16 16 16 16 16 16 16 15 15 15 16 16 16 16 16 16 16 16 16 16 16 16 16 16 16 16 16 16 16 16 16 16 16 16 16 16 16 16 16 16 16
16 16 16 16 16 15 15 15 15 15 15 15 15 15 15 15 16 16 16 16 16 16 16 16 16 16 16 16 16 16 16 16 16 16 16 16 16 16 16 16 16 16 16
16 16 16 15 15 15 15 15 15 15 15 15 15 15 15 15 15 15 15 15 16 16 16 16 16 16 16 16 16 16 16 16 16 16 16 16 16 16 16 16 16 16 16
16 15 15 15 15 15 15 15 14 14 14 14 14 14 14 15 15 15 15 15 15 15 15 15 16 16 16 16 16 16 16 16 16 16 16 16 16 16 16 16 16 16 16
15 15 15 15 15 14 14 14 14 14 14 14 14 14 14 14 14 14 14 15 15 15 15 15 15 15 16 16 16 16 16 16 16 16 16 16 16 16 16 16 16 16 16
15 15 15 14 14 14 14 14 14 14 14 13 13 13 13 13 13 13 14 14 14 14 14 15 15 15 15 15 15 16 16 16 16 16 16 16 16 16 16 16 16 16 16
15 15 14 14 14 14 14 13 13 13 13 13 13 13 13 13 13 13 13 13 14 14 14 14 14 14 15 15 15 15 15 15 15 15 15 15 16 16 16 16 16 16 16
15 14 14 14 14 13 13 13 13 13 13 13 12 12 12 12 12 12 12 12 13 13 13 14 14 14 14 14 14 15 15 15 15 15 15 15 15 15 15 16 16 16 16
14 14 14 14 13 13 13 13 13 12 12 12 12 12 12 12 12 12 12 12 12 12 13 13 13 13 13 14 14 14 14 15 15 15 15 15 15 15 15 15 15 15 15
14 14 14 13 13 13 13 13 12 12 12 12 12 12 12 11 11 11 11 11 11 12 12 12 13 13 13 13 13 14 14 14 14 14 14 15 15 15 15 15 15 15 15
14 14 13 13 13 13 13 12 12 12 12 12 12 11 11 11 11 11 11 11 11 10 11 12 12 12 12 12 13 13 13 13 14 14 14 14 14 14 15 15 15 15 15
14 14 13 13 13 13 12 12 12 12 12 12 12 11 11 11 11 11 11 11 10 10 10 11 11 11 12 12 12 12 13 13 13 13 14 14 14 14 14 15 15 15 15
14 14 13 13 13 13 12 12 12 12 12 12 11 11 11 11 11 11 11 10 10 10 10 11 11 11 11 11 12 12 12 12 13 13 13 13 14 14 14 14 14 15 15
14 14 13 13 13 13 12 12 12 12 12 12 11 11 11 11 11 11 11 10 10 10 10 10 11 11 11 11 11 11 12 12 12 12 13 13 13 13 14 14 14 14 14
14 14 14 13 13 13 13 12 12 12 12 12 11 11 11 11 11 11 10 10 10 10 10 10 10 10 11 11 11 11 11 11 12 12 12 12 13 13 13 13 14 14 14
15 14 14 14 13 13 13 13 12 12 12 12 11 11 11 11 11 11 10 10 10 10 10 10 10 10 10 10 10 10 11 11 11 11 12 12 12 13 13 13 13 14 14
15 14 14 14 14 13 13 13 12 12 12 12 12 11 11 11 11 11 10 10 10 10 10 9 9 10 10 10 10 10 10 10 11 11 11 12 12 12 12 13 13 13 14
15 14 14 14 14 14 13 13 13 12 12 12 12 12 11 11 11 11 10 10 10 10 9 9 9 9 10 10 10 9 9 9 10 11 11 11 11 12 12 12 13 13 13
15 15 14 14 14 14 13 13 13 12 12 12 12 12 11 11 11 11 10 10 10 10 9 9 9 9 9 9 9 9 9 9 9 10 10 10 11 11 12 12 12 12 13
15 15 14 14 14 14 13 13 12 12 12 12 12 11 11 11 11 10 10 10 10 10 9 9 9 9 9 9 9 9 9 9 9 9 9 9 10 11 11 11 12 12 12
15 15 14 14 14 14 13 13 12 12 12 12 12 12 11 11 11 10 10 10 10 10 10 9 9 9 9 9 9 8 8 8 8 9 9 9 10 10 11 11 11 12 12
15 14 14 14 13 13 13 13 12 12 12 12 12 12 11 11 11 11 10 10 10 10 10 9 9 9 9 9 9 8 8 8 8 8 9 9 9 9 9 10 11 11 11
Wind_Speed
2 2 1 1 1 1 1 1 1 0 1 1 0 0 1 2 2 3 4 7 9 12 15 16 17 17 18 18 17 17 17 17 16 16 15 15 14 14 14 13 13 13 12
3 2 1 1 1 1 1 2 1 1 1 1 1 1 2 2 3 4 4 6 8 11 14 16 16 17 18 18 19 19 19 18 18 18 17 17 16 16 15 14 14 14 13
5 3 2 1 1 2 2 2 2 2 1 1 1 1 2 3 4 5 5 6 7 10 13 14 15 17 18 18 19 20 20 20 20 20 19 19 18 18 17 16 15 15 15
6 4 2 1 1 2 3 2 2 1 1 1 1 2 2 3 4 5 5 5 5 7 11 13 15 16 18 18 19 20 21 21 21 21 21 21 20 19 19 18 17 17 16
6 5 3 2 2 2 2 1 1 1 0 1 2 2 2 3 3 4 4 5 5 6 8 10 13 16 17 19 19 20 21 22 23 23 23 22 22 21 21 20 19 19 18
6 5 3 3 3 2 1 1 1 1 0 1 2 2 2 3 2 2 3 3 4 5 6 8 9 11 15 18 19 20 20 21 22 24 24 24 24 23 23 23 22 21 20
5 5 3 3 2 2 2 2 2 1 1 1 1 2 3 2 2 2 2 2 3 4 4 6 7 9 10 13 17 20 20 21 22 23 25 25 25 25 25 25 24 23 22
4 4 4 2 2 2 2 2 2 1 1 1 1 1 2 4 3 3 2 2 3 3 4 4 5 7 9 9 11 15 19 20 22 22 23 25 26 26 26 26 26 25 25
3 4 4 3 3 3 2 2 2 3 1 0 1 2 1 2 3 3 2 3 4 3 3 4 5 5 6 7 9 11 15 17 19 21 22 24 25 26 27 28 28 27 27
2 3 4 4 3 2 2 1 2 2 2 1 0 0 1 2 1 2 3 3 4 3 4 4 5 5 5 5 7 9 11 13 15 18 21 22 24 25 26 27 28 28 28
2 3 4 4 3 2 2 2 2 2 2 2 1 1 1 1 1 2 3 4 3 3 4 4 4 5 5 4 5 6 9 10 12 14 16 19 22 23 25 26 28 28 29
1 2 3 3 3 2 2 2 2 2 2 2 2 2 2 2 2 2 3 3 3 3 4 3 3 4 5 5 5 7 8 9 9 10 12 14 17 20 22 23 25 27 28
1 1 2 2 2 2 2 2 2 2 2 2 2 2 2 2 2 2 2 3 3 3 3 3 3 5 5 5 7 8 9 9 10 10 10 12 14 16 19 21 24 25 27
3 2 2 2 2 2 2 2 1 2 2 2 3 3 2 3 3 3 3 2 2 3 2 4 3 4 5 6 8 9 8 9 9 9 10 10 12 14 16 18 21 23 24
2 3 2 2 2 2 2 2 2 2 2 3 3 3 3 3 3 4 4 4 3 3 4 3 3 3 5 7 9 8 8 9 10 10 11 11 11 12 14 15 17 20 22
3 3 3 3 3 2 2 2 2 3 3 3 3 4 4 3 3 3 4 4 5 5 5 3 4 4 6 8 9 8 9 11 11 12 12 12 12 12 13 14 16 17 20
4 5 5 4 4 4 3 3 4 4 4 4 4 4 5 4 4 4 4 4 5 5 6 6 4 4 4 7 8 8 9 9 9 12 12 13 13 13 14 15 16 17 19
5 5 5 5 5 5 5 5 6 5 6 6 6 5 6 5 6 5 4 5 5 6 6 8 5 4 5 6 6 7 7 7 8 11 13 13 13 14 15 15 16 17 19
6 5 5 6 6 6 6 6 6 7 7 7 7 7 7 6 7 6 6 6 6 6 6 6 6 4 4 4 5 5 6 6 8 9 11 12 13 14 14 14 15 16 18
6 6 6 7 7 6 6 7 7 7 8 8 8 8 8 8 9 8 7 7 7 6 6 7 7 6 6 5 4 5 6 4 5 6 8 9 10 11 12 13 14 15 16
7 7 6 7 6 6 7 8 8 8 8 8 8 8 9 10 12 10 8 8 7 7 6 7 7 6 6 5 6 4 5 6 5 4 5 5 5 6 7 10 12 14 15
6 6 7 8 8 7 10 11 9 8 8 9 9 9 9 11 12 13 14 13 10 9 9 7 7 8 10 8 7 6 5 5 5 3 3 5 4 6 6 8 10 13 14
6 7 7 8 9 10 13 13 13 9 9 10 10 10 9 9 10 9 11 12 13 14 15 11 11 12 10 9 7 7 7 7 7 5 3 6 5 7 6 9 12 13 14
6 7 8 8 9 11 13 14 14 10 10 11 11 11 11 11 10 10 10 10 10 11 11 11 12 13 12 10 9 9 8 7 7 6 5 6 6 6 7 8 12 13 13
7 7 6 8 9 11 13 14 12 7 9 12 11 11 11 12 14 13 10 11 12 11 11 14 15 14 15 15 10 6 6 6 7 6 5 5 5 6 6 7 8 12 13
7 7 8 8 9 11 13 14 12 7 9 10 10 10 13 15 15 13 11 11 12 12 10 8 9 10 11 12 12 11 10 9 7 6 6 6 5 4 4 4 4 5 7
Wind_Direction
169 157 141 135 177 181 183 194 200 180 109 90 118 205 262 263 261 252 252 247 234 225 216 211 210 209 207 205 204 204 203 201 198 196 195 194 192 190 189 189 186 184 182
162 151 144 122 107 153 181 180 171 143 114 105 49 317 288 285 278 271 267 259 238 231 225 219 218 217 215 213 212 210 209 208 205 202 201 201 199 198 197 197 195 192 192
159 148 137 127 133 128 125 110 92 92 91 68 349 307 293 283 277 275 273 264 250 239 234 233 231 226 222 220 220 219 216 213 210 207 205 206 205 204 203 202 201 200 199
153 139 130 126 121 113 111 108 97 92 50 28 310 297 297 294 279 275 274 267 255 245 242 240 238 236 231 227 226 225 223 219 216 213 210 210 210 209 208 208 207 206 206
151 140 135 132 121 107 98 107 91 112 101 302 283 280 297 292 286 284 279 276 269 260 253 251 247 245 242 238 233 232 229 225 222 218 216 214 214 213 212 211 212 211 211
154 144 137 133 129 115 106 102 99 84 85 299 304 314 312 306 303 296 296 295 288 277 265 257 254 256 253 247 240 238 236 232 228 225 221 219 218 216 215 214 214 214 214
152 147 135 128 131 132 146 147 132 96 26 7 23 343 331 336 340 335 333 325 320 307 285 263 253 253 256 254 246 243 241 238 235 231 227 224 221 219 217 216 216 216 216
156 156 150 148 147 133 119 123 127 120 52 57 111 66 349 343 347 1 354 356 342 341 326 303 281 264 258 255 251 247 244 240 238 235 233 229 225 222 220 219 218 217 217
153 153 155 150 146 144 147 153 147 147 158 60 93 145 155 249 309 327 345 354 346 348 341 333 325 300 273 261 259 258 254 246 240 236 234 232 230 227 224 222 221 219 218
123 143 143 139 136 135 141 152 141 145 147 170 171 37 186 175 201 311 321 330 337 339 337 334 332 322 305 280 268 265 264 255 247 242 236 233 231 230 227 225 225 223 220
80 126 137 135 134 133 137 132 130 139 153 169 181 172 134 91 175 210 288 318 326 314 315 311 312 319 323 313 295 285 278 270 260 252 245 239 235 233 232 230 229 229 225
45 90 126 135 142 144 151 158 154 154 167 171 178 182 179 182 196 196 239 277 298 299 305 302 298 307 312 313 312 311 300 289 277 264 256 251 246 240 238 237 235 233 230
165 171 137 143 153 175 178 171 171 188 187 186 193 202 207 218 200 190 213 252 273 292 304 297 288 293 301 310 314 315 305 296 284 273 265 258 252 247 243 241 239 236 233
199 196 172 177 192 195 191 178 190 214 203 208 214 207 213 225 212 204 204 211 269 288 283 279 297 285 298 307 305 306 300 294 287 278 272 267 259 250 245 243 240 238 234
201 196 198 202 217 219 214 194 216 229 219 226 231 228 229 234 223 223 219 209 218 265 282 270 275 290 298 300 300 299 294 291 287 281 276 271 265 256 249 246 243 240 236
202 198 211 219 229 232 225 215 233 236 230 238 232 233 240 244 237 228 222 221 218 231 260 262 258 278 292 295 296 294 291 292 288 281 276 271 264 260 257 252 248 243 237
206 210 216 223 233 240 235 227 239 241 241 251 249 241 249 248 247 243 230 226 223 219 250 270 257 269 276 281 293 294 290 285 284 280 277 272 264 257 256 254 250 246 240
217 219 221 228 237 240 234 232 245 245 242 251 253 249 255 254 249 246 238 237 234 225 236 267 273 269 262 272 280 287 290 287 282 283 280 275 268 260 254 251 250 247 243
220 223 222 230 238 241 240 241 243 249 247 248 250 248 253 250 254 250 243 243 244 242 232 250 269 265 267 270 278 283 284 283 285 281 281 277 271 265 258 253 251 247 243
219 226 230 235 240 244 246 248 246 248 251 252 250 247 248 244 248 250 248 244 244 246 242 247 262 268 268 270 264 272 283 281 286 289 281 277 270 267 262 257 253 248 244
225 229 236 243 245 245 246 243 243 247 249 257 257 251 249 246 244 243 246 245 241 244 247 249 259 266 267 264 259 255 270 284 283 268 279 277 270 267 267 263 256 252 248
228 228 235 242 247 248 249 247 241 247 249 252 259 261 258 257 256 251 248 246 235 239 245 246 253 257 263 260 257 253 257 270 280 256 263 280 271 271 265 259 258 256 252
226 232 239 241 249 253 254 255 250 245 249 251 253 258 262 259 252 256 258 259 252 243 236 240 250 253 258 254 248 252 243 243 252 258 262 277 268 267 264 262 260 259 256
226 236 243 244 249 257 254 254 255 249 249 251 250 249 253 261 258 250 256 262 261 256 246 241 245 251 253 253 243 248 255 256 258 255 233 260 269 266 268 264 259 256 256
231 237 244 243 247 259 258 256 253 249 252 256 254 249 245 253 255 246 248 257 264 266 257 244 242 248 251 248 238 236 239 241 259 259 218 234 262 267 266 262 256 249 250
234 241 248 248 247 257 262 260 252 243 252 259 260 253 242 243 250 246 243 247 257 263 264 265 258 258 257 255 239 229 233 239 250 259 225 216 245 250 271 258 255 251 249
Height
1561 1562 1563 1563 1564 1564 1565 1566 1567 1568 1568 1569 1569 1570 1571 1571 1572 1573 1573 1574 1575 1576 1577 1578 1579 1581 1582 1584 1586 1587 1589 1590 1592 1594 1595 1597 1599 1600 1602 1603 1605 1606 1608
1561 1561 1562 1562 1562 1563 1564 1565 1565 1566 1567 1567 1568 1568 1569 1569 1570 1570 1571 1572 1573 1574 1575 1576 1577 1579 1580 1582 1584 1586 1587 1589 1591 1592 1594 1596 1598 1599 1601 1603 1604 1606 1607
1560 1560 1561 1561 1561 1562 1562 1563 1564 1564 1565 1566 1566 1566 1567 1567 1567 1568 1568 1569 1570 1571 1572 1574 1575 1576 1578 1579 1581 1583 1585 1587 1589 1590 1592 1594 1596 1598 1600 1601 1603 1605 1606
1559 1559 1560 1560 1560 1561 1561 1562 1562 1563 1563 1564 1564 1564 1564 1564 1565 1565 1565 1566 1567 1568 1569 1571 1572 1573 1575 1576 1578 1580 1582 1584 1586 1588 1590 1592 1594 1596 1598 1599 1601 1603 1605
1558 1558 1559 1559 1559 1560 1560 1560 1561 1561 1561 1562 1562 1562 1562 1562 1562 1562 1562 1563 1563 1565 1566 1567 1568 1570 1571 1573 1575 1576 1578 1581 1582 1585 1587 1589 1591 1593 1595 1597 1599 1601 1603
1557 1557 1558 1558 1559 1559 1559 1559 1559 1560 1560 1560 1560 1560 1560 1559 1559 1559 1559 1560 1560 1561 1562 1563 1564 1566 1568 1569 1571 1572 1575 1576 1578 1581 1583 1585 1587 1589 1592 1594 1596 1598 1600
1556 1557 1557 1557 1557 1558 1558 1558 1558 1558 1558 1558 1558 1558 1558 1557 1557 1557 1557 1557 1558 1558 1559 1559 1560 1562 1563 1565 1566 1568 1570 1572 1574 1576 1578 1580 1583 1585 1587 1590 1592 1594 1597
1555 1556 1556 1556 1556 1556 1556 1556 1557 1556 1556 1556 1556 1556 1556 1556 1555 1555 1555 1556 1556 1556 1556 1557 1557 1558 1559 1561 1562 1564 1565 1567 1568 1571 1573 1575 1578 1580 1583 1585 1588 1590 1592
1554 1555 1555 1555 1555 1555 1555 1555 1555 1555 1555 1555 1555 1555 1555 1554 1554 1554 1554 1554 1554 1554 1554 1554 1554 1555 1555 1556 1558 1559 1561 1562 1564 1565 1567 1569 1572 1575 1577 1580 1583 1585 1588
1553 1553 1553 1553 1553 1553 1553 1553 1553 1553 1553 1553 1553 1553 1553 1553 1553 1552 1552 1552 1552 1552 1552 1552 1552 1552 1552 1553 1553 1555 1556 1557 1558 1560 1562 1564 1566 1569 1571 1574 1577 1579 1582
1551 1551 1551 1551 1551 1551 1551 1551 1551 1551 1551 1551 1551 1551 1550 1550 1550 1550 1549 1549 1549 1550 1549 1549 1549 1549 1549 1549 1550 1551 1552 1553 1553 1555 1556 1558 1560 1562 1565 1568 1570 1573 1576
1549 1549 1549 1549 1549 1549 1549 1549 1549 1549 1548 1548 1548 1548 1548 1548 1548 1548 1547 1546 1546 1546 1546 1546 1546 1546 1546 1546 1546 1547 1547 1548 1549 1549 1551 1552 1554 1556 1558 1561 1563 1566 1569
1546 1547 1547 1547 1547 1547 1547 1547 1546 1546 1546 1546 1546 1546 1545 1545 1545 1545 1545 1544 1543 1542 1542 1542 1542 1543 1543 1543 1543 1543 1543 1544 1544 1545 1545 1546 1547 1549 1551 1554 1556 1559 1562
1544 1545 1545 1545 1545 1545 1545 1544 1544 1544 1544 1544 1543 1543 1543 1543 1543 1542 1542 1541 1540 1539 1538 1538 1539 1539 1539 1539 1539 1539 1539 1539 1540 1540 1540 1541 1541 1543 1545 1547 1549 1551 1554
1542 1543 1543 1543 1543 1543 1542 1542 1542 1542 1542 1541 1541 1541 1540 1540 1540 1539 1539 1539 1538 1536 1534 1534 1535 1535 1535 1534 1534 1534 1534 1535 1535 1535 1535 1535 1536 1537 1538 1540 1541 1544 1546
1541 1541 1541 1541 1541 1541 1540 1540 1540 1540 1539 1539 1538 1538 1537 1537 1536 1536 1535 1535 1534 1534 1531 1530 1530 1530 1530 1530 1530 1529 1529 1530 1530 1530 1530 1530 1530 1531 1531 1533 1534 1536 1539
1539 1539 1539 1539 1539 1539 1538 1538 1538 1537 1537 1536 1536 1535 1534 1534 1533 1533 1532 1531 1530 1530 1527 1526 1526 1526 1525 1525 1525 1525 1524 1524 1524 1524 1524 1524 1524 1525 1525 1526 1528 1530 1532
1537 1537 1537 1537 1536 1536 1536 1535 1535 1534 1534 1533 1533 1532 1531 1530 1529 1529 1528 1527 1526 1525 1524 1521 1521 1521 1520 1520 1519 1519 1519 1518 1518 1518 1518 1518 1518 1519 1519 1520 1521 1523 1524
1534 1534 1534 1534 1534 1533 1533 1532 1532 1531 1530 1530 1529 1528 1527 1526 1525 1524 1523 1523 1522 1521 1519 1518 1516 1515 1515 1515 1514 1513 1513 1512 1512 1512 1512 1512 1512 1513 1513 1514 1515 1516 1517
1531 1531 1531 1531 1530 1530 1529 1529 1528 1527 1527 1526 1525 1524 1523 1522 1521 1520 1519 1518 1517 1516 1514 1513 1511 1510 1510 1509 1509 1508 1507 1507 1506 1506 1506 1506 1506 1506 1507 1507 1508 1509 1510
1528 1528 1528 1527 1527 1526 1525 1525 1524 1523 1522 1521 1520 1519 1518 1517 1516 1515 1513 1512 1511 1510 1509 1507 1506 1505 1504 1504 1503 1502 1501 1501 1500 1500 1499 1499 1499 1499 1500 1501 1501 1502 1503
1524 1524 1523 1523 1522 1522 1521 1520 1519 1518 1517 1516 1515 1514 1513 1512 1510 1509 1508 1507 1506 1504 1503 1502 1500 1499 1498 1498 1498 1497 1496 1495 1494 1495 1493 1493 1493 1493 1493 1494 1494 1495 1496
1520 1519 1519 1518 1518 1517 1516 1515 1514 1513 1512 1511 1510 1508 1507 1506 1505 1504 1502 1501 1500 1499 1498 1496 1494 1493 1493 1493 1492 1491 1490 1489 1488 1489 1488 1486 1487 1486 1487 1487 1487 1488 1488
1515 1515 1515 1514 1513 1512 1512 1510 1509 1508 1506 1505 1504 1503 1501 1500 1499 1498 1496 1494 1493 1492 1491 1490 1488 1487 1487 1487 1486 1485 1484 1483 1482 1483 1482 1480 1480 1480 1480 1480 1480 1481 1481
1511 1510 1510 1509 1508 1507 1506 1505 1504 1502 1500 1499 1498 1496 1495 1494 1493 1492 1489 1487 1486 1485 1485 1483 1482 1481 1480 1480 1479 1478 1478 1477 1475 1475 1476 1475 1473 1473 1472 1472 1473 1474 1474
1506 1505 1504 1503 1502 1501 1501 1500 1498 1496 1494 1492 1491 1490 1489 1487 1486 1485 1483 1481 1479 1478 1478 1476 1475 1474 1473 1472 1472 1472 1471 1470 1469 1469 1469 1469 1468 1468 1466 1465 1466 1467 1468